Location: Epalinges
(46.5518°N, 6.6683°E)
Time: 13:15:56
(UTC+00:00)

SeaSat 1 - Pass Details

Date: 21 October 2021
Orbit: 744 x 747 km, 108.0° (Epoch: 09 December)

Event Time Altitude Azimuth Distance (km) Brightness Sun altitude
Exits shadow 19:58:22 11° 359° (N) 2,198 5.1 -35.0°
Drops below altitude 10° 19:58:37 10° 357° (N) 2,273 5.2 -35.0°
Sets 20:01:21 0° 342° (NNW) 3,201 6.2 -35.5°
